User: anonymous   Login
Location: Maiden_LMO
(35.5760°N, 81.2120°W)
Time: 16:14:24
(UTC-04:00)
Language:

Cosmos 2278 Rocket - Orbit

View from above orbital plane
View from above orbital plane
View from above satellite
View from above satellite

Ground track
Ground track

The orbit data is extracted from the following two-line orbital elements,

1 23088U 94023B   17229.93193570 -.00000289 +00000-0 -12542-3 0  9995
2 23088 071.0009 152.4641 0004068 328.4887 031.5991 14.14658989204000
Epoch (UTC): 17 August 2017 22:21:59
Eccentricity: 0.0004068
inclination: 71.0009°
perigee height: 840 km
apogee height: 846 km
right ascension of ascending node: 152.4641°
argument of perigee: 328.4887°
revolutions per day: 14.14658989
mean anomaly at epoch: 31.5991°
orbit number at epoch: 20400

The dashed part of the orbit path shows where the satellite is in the earth's shadow,  

DLR